Home   Weather   Turku   Past weeks

Flag for Finland Past Weather in Turku, Finland — Yesterday and Last 2 Weeks

Now
32 °F

Ice fog.


Feels Like: 25 °F
Forecast: 28 / 34 °F
Wind: 8 mph from West

Location: Turku Airport

Current Time: Jan 22, 2017 at 8:32:07 pm

Latest Report: Jan 22, 2017 at 7:50 pm


Visibility: 1 mi

Pressure: 30.01 "Hg

Humidity: 100%

Dew Point: 32 °F

Location of TurkuLocation

Past Weather in Turku — Graph

°F

Turku Temperature Yesterday

Maximum temperature yesterday: 36 °F (at 2:50 pm)
Minimum temperature yesterday: 23 °F (at 8:20 am)
Average temperature yesterday: 29 °F

High & Low Weather Summary for the Past Weeks

 TemperatureHumidityPressure
High39 °F (Jan 19, 8:50 pm)100% (Jan 7, 7:20 pm)30.42 "Hg (Jan 7, 7:20 pm)
Low10 °F (Jan 15, 6:20 pm)64% (Jan 11, 10:50 pm)28.94 "Hg (Jan 13, 12:20 am)
Average30 °F93%29.84 "Hg
* Reported Jan 7 7:20 pm — Jan 22 7:20 pm, Turku, Weather by CustomWeather, © 2017

Note: Actual official high and low records may vary slightly from our data, if they occured in-between our weather recording intervals... More about our weather records

Advertising

Turku Weather History for the Previous 24 Hours

Scroll right to see more
 ConditionsComfort  
Time TempWeatherWind HumidityBarometerVisibility
7:20 pm
Sun, Jan 22
32 °FIce fog.9 mph100%30.01 "Hg1 mi
6:50 pm32 °FPassing clouds.8 mph100%30.01 "HgN/A
6:20 pm32 °FPassing clouds.8 mph93%30.01 "HgN/A
5:50 pm30 °FClear.8 mph100%30.01 "Hg10 mi
5:20 pm30 °FClear.7 mph100%30.01 "Hg10 mi
4:50 pm30 °FClear.6 mph100%30.04 "Hg10 mi
4:20 pm32 °FClear.6 mph93%30.04 "Hg10 mi
3:50 pm34 °FSunny.5 mph93%30.04 "Hg10 mi
3:20 pm36 °FSunny.7 mph87%30.04 "Hg10 mi
2:50 pm36 °FSunny.5 mph87%30.04 "Hg10 mi
2:20 pm36 °FSunny.7 mph87%30.04 "Hg10 mi
1:50 pm36 °FSunny.8 mph87%30.04 "Hg10 mi
1:20 pm37 °FSunny.9 mph81%30.04 "Hg10 mi
12:50 pm37 °FSunny.8 mph81%30.07 "Hg10 mi
12:20 pm36 °FSunny.7 mph87%30.07 "Hg10 mi
11:50 am36 °FSunny.6 mph87%30.07 "Hg10 mi
11:20 am34 °FSunny.6 mph93%30.09 "Hg10 mi
10:50 am34 °FSunny.5 mph87%30.09 "Hg10 mi
10:20 am32 °FSunny.6 mph93%30.09 "Hg10 mi
9:50 am32 °FSunny.5 mph93%30.09 "Hg10 mi
9:20 am32 °FSunny.6 mph93%30.09 "Hg10 mi
8:50 am34 °FClear.8 mph87%30.09 "Hg10 mi
8:20 am34 °FClear.9 mph87%30.09 "Hg10 mi
7:50 am34 °FClear.9 mph93%30.09 "Hg10 mi
7:20 am32 °FClear.5 mph93%30.09 "Hg10 mi
6:50 am32 °FClear.5 mph93%30.09 "Hg10 mi
6:20 am34 °FClear.8 mph93%30.09 "Hg10 mi
5:50 am30 °FClear.6 mph100%30.09 "Hg10 mi
5:20 am30 °FClear.6 mph100%30.12 "Hg10 mi
4:50 am30 °FClear.3 mph100%30.12 "Hg10 mi
4:20 am32 °FPassing clouds.5 mph93%30.12 "HgN/A
3:50 am30 °FClear.5 mph100%30.12 "Hg10 mi
3:20 am30 °FClear.2 mph100%30.12 "Hg10 mi
2:50 am30 °FClear.2 mph100%30.15 "Hg10 mi
2:20 am32 °FClear.5 mph93%30.15 "Hg10 mi
1:50 am34 °FClear.7 mph93%30.15 "Hg10 mi
1:20 am34 °FPassing clouds.8 mph93%30.15 "HgN/A
12:50 am34 °FPassing clouds.8 mph93%30.15 "HgN/A
12:20 am34 °FOvercast.8 mph93%30.18 "HgN/A
11:50 pm
Sat, Jan 21
34 °FOvercast.8 mph93%30.18 "HgN/A
11:20 pm32 °FOvercast.8 mph100%30.18 "HgN/A
10:50 pm32 °FOvercast.5 mph100%30.18 "HgN/A
10:20 pm30 °FOvercast.3 mph100%30.21 "HgN/A
9:50 pm30 °FLight snow. Mostly cloudy.3 mph100%30.21 "HgN/A
9:20 pm28 °FOvercast.3 mph100%30.21 "HgN/A
8:50 pm25 °FIce fog.1 mph93%30.24 "Hg2 mi
8:20 pm23 °FIce fog.No wind100%30.24 "Hg1 mi
Weather by CustomWeather, © 2017

See weather overviewHow to use our weather pages